User: anonymous   Login
Location: Sawmill Trailhead
(33.5800°N, 116.4497°W)
Time: 02:17:56
(UTC-08:00)
Language:

Uosat F - Orbit

View from above orbital plane
View from above orbital plane
View from above satellite
View from above satellite

Ground track
Ground track

The orbit data is extracted from the following two-line orbital elements,

1 21575U 91050B   15027.50506326  .00000198  00000-0  76778-4 0  2278
2 21575 098.7263 012.7274 0007471 023.4653 087.8116 14.40543841235771
Epoch (UTC): 27 January 2015 12:07:17
Eccentricity: 0.0007471
inclination: 98.7263°
perigee height: 751 km
apogee height: 762 km
right ascension of ascending node: 12.7274°
argument of perigee: 23.4653°
revolutions per day: 14.40543841
mean anomaly at epoch: 87.8116°
orbit number at epoch: 23577

The dashed part of the orbit path shows where the satellite is in the earth's shadow,  

DLR